This is the latest recevied weather packets stored in our database for station/object E22ZMG-4. If no packets are shown the sender has not sent any weather packets the latest 10 day(s).
| Time | Temp. | Humidity | Pressure | Rain* | Wind** | Luminosity | Snow |
|---|---|---|---|---|---|---|---|
| 1778136502 | 27.78° C | 41% | 972 hPa | - | - | 0 W/m² | - |
| 1778135877 | 27.78° C | 40% | 972 hPa | - | - | 0 W/m² | - |
| 1778135252 | 28.33° C | 40% | 973 hPa | - | - | 0 W/m² | - |
| 1778134628 | 28.33° C | 41% | 973 hPa | - | - | 0 W/m² | - |
| 1778134003 | 28.33° C | 40% | 973 hPa | - | - | 0 W/m² | - |
| 1778133378 | 29.44° C | 43% | 973 hPa | - | - | 0 W/m² | - |
| 1778132753 | 31.11° C | 42% | 974 hPa | - | - | 0 W/m² | - |
| 1778132126 | 30.56° C | 41% | 974 hPa | - | - | 0 W/m² | - |
| 1778131501 | 30° C | 41% | 974 hPa | - | - | 0 W/m² | - |
| 1778130875 | 28.89° C | 41% | 974 hPa | - | - | 0 W/m² | - |
| 1778130265 | 27.22° C | 43% | 975 hPa | - | - | 0 W/m² | - |
| 1778129626 | 26.11° C | 40% | 975 hPa | - | - | 0 W/m² | - |
| 1778129001 | 26.67° C | 42% | 975 hPa | - | - | 0 W/m² | - |
| 1778128377 | 26.67° C | 47% | 975 hPa | - | - | 0 W/m² | - |
| 1778127752 | 26.67° C | 43% | 975 hPa | - | - | 0 W/m² | - |
| 1778127128 | 27.22° C | 45% | 975 hPa | - | - | 0 W/m² | - |
| 1778126504 | 27.22° C | 43% | 975 hPa | - | - | 0 W/m² | - |
| 1778125879 | 26.67° C | 40% | 975 hPa | - | - | 0 W/m² | - |
| 1778125255 | 27.22° C | 43% | 975 hPa | - | - | 0 W/m² | - |
| 1778124630 | 26.67° C | 44% | 976 hPa | - | - | 0 W/m² | - |
| 1778124006 | 27.22° C | 45% | 976 hPa | - | - | 0 W/m² | - |
| 1778123382 | 27.78° C | 49% | 976 hPa | - | - | 0 W/m² | - |
| 1778122752 | 27.78° C | 50% | 976 hPa | - | - | 0 W/m² | - |
| 1778122146 | 27.22° C | 43% | 976 hPa | - | - | 0 W/m² | - |
| 1778121500 | 27.22° C | 47% | 976 hPa | - | - | 0 W/m² | - |
* Rain since midnight (hover to see other rain measurements)
** Current wind speed in m/s (hover to see current wind gust speed)